Location: Newark
(54.2500°N, 9.1833°E)
Time: 22:43:49
(UTC+00:00)

Vanguard 2 Rocket - Pass Details

Date: 17 December 2019
Orbit: 554 x 3326 km, 32.9° (Epoch: 21 January)

Event Time Altitude Azimuth Distance (km) Brightness Sun altitude
Rises 17:40:14 0° 249° (WSW) 6,946 12.8 -21.8°
Reaches altitude 10° 17:46:21 10° 240° (WSW) 5,563 11.8 -22.6°
Maximum altitude 17:57:50 26° 193° (SSW) 3,465 10.0 -24.3°
Enters shadow 18:05:29 11° 143° (SE) 3,692 9.7 -25.4°
